sat.trackr.live / text

‹ back to catalog

STARLINK-35558

NORAD 66060 · 2025-235C

PAYLOAD ACTIVE UNKNOWN

§ Identity

Operator
Country
US
Launch date
2025-10-19
Launch site
AFETR
Launch vehicle
Mass (kg)
RCS (m²)

Purposes: comms

External: N2YO · Heavens-Above · Gunter

§ Orbital elements

Epoch: 2026-05-25T00:25:50.005632Z

Period
94.10 min
Inclination
53.1619°
Eccentricity
0.0001791
Mean motion
15.30221847 rev/d
Perigee alt
473.9 km
Apogee alt
476.4 km
Semi-major
6,853.3 km
B*
5.5045e-4
RAAN
251.0197°
Arg perigee
92.0965°
Mean anomaly
268.0241°
Rev number
3,460

§ Raw data

STARLINK-355581 66060U 25235C   26145.01793988  .00015989  00000+0  55045-3 0  99912 66060  53.1619 251.0197 0001791  92.0965 268.0241 15.30221847 34608

JSON: /api/v1/satellites/66060 · /tle

For live sub-satellite position, see the globe view (requires WebGL).

§ Visibility from observer

Set your observer location to see the next 7 days of passes ≥ 10°. The values pass through the URL so the page stays shareable.

No JS? Fill the form by hand. The geolocation button needs JavaScript.